Multibeam Report for KNOX05RR


Ship Name: Roger Revelle
Chief Scientist: Goldfinger, Chris
Oregon State University
Source Organization: Rolling Deck to Repository
Start Date: 2007-05-07
End Date: 2007-06-14


View ISO Metadata

Visit the full NCEI Bathymetry Viewer


Multibeam Bathymetry

Cruise Details

Project: Holocene Great Earthquake Record from the Northern
Instrument: Simrad EM120

Data Quality

Number of Files: 484
Number of Records: 140086
BATHYMETRY DATA Quantity Percentage
Number of Beams 26756426 100%
Number of Good Beams 26285343 98.24%
Number of Zero Beams 471083 1.76%
Number of Flagged Beams 0 0%
AMPLITUDE DATA Quantity Percentage
Number of Beams 26756426 100%
Number of Good Beams 26285343 98.24%
Number of Zero Beams 471083 1.76%
Number of Flagged Beams 0 0%
SIDESCAN DATA Quantity Percentage
Number of Pixels 143448064 100%
Number of Good Pixels 101044190 70.44%
Number of Zero Pixels 0 0%
Number of Flagged Pixels 42403874 29.56%

Navigation Totals

Total Time: 452.0884 hours
Total Track Length: 6415.9647 km
Average Speed: 14.192 km/hr (7.6631 knots)

Cruise Bounds

Northern Extent: 7.269919
Southern Extent: -6.573348
Western Extent: 91.89961
Eastern Extent: 101.915016

Limits

Minimum Sonar Depth 2.08 Maximum Sonar Depth 9.23
Minimum Altitude 0 Maximum Altitude 7509.9199
Minimum Depth 64.88 Maximum Depth 8090.2402
Minimum Amplitude 0 Maximum Amplitude 31.5
Minimum Sidescan 0 Maximum Sidescan 44

File Information

Full Resolution Bathymetry as collected (raw): 481

Files File Size Description
0001_20070507_200355_raw.all.mb56.gz 6.54MB Simrad multibeam vendor format
0001_20070512_104856_raw.all.mb56.gz 26.7KB Simrad multibeam vendor format
0002_20070507_210356_raw.all.mb56.gz 7.84MB Simrad multibeam vendor format
0003_20070507_220356_raw.all.mb56.gz 7.45MB Simrad multibeam vendor format
0004_20070507_230357_raw.all.mb56.gz 6.15MB Simrad multibeam vendor format
0005_20070508_000357_raw.all.mb56.gz 5.59MB Simrad multibeam vendor format
0006_20070508_010357_raw.all.mb56.gz 3.29MB Simrad multibeam vendor format
0007_20070508_014215_raw.all.mb56.gz 4.98MB Simrad multibeam vendor format
0008_20070508_024215_raw.all.mb56.gz 5.35MB Simrad multibeam vendor format
0009_20070508_034216_raw.all.mb56.gz 4.92MB Simrad multibeam vendor format
0010_20070508_044216_raw.all.mb56.gz 4.52MB Simrad multibeam vendor format
0011_20070508_054217_raw.all.mb56.gz 6.90MB Simrad multibeam vendor format
0012_20070508_064217_raw.all.mb56.gz 6.20MB Simrad multibeam vendor format
0013_20070508_074218_raw.all.mb56.gz 10.40MB Simrad multibeam vendor format
0014_20070508_084218_raw.all.mb56.gz 6.88MB Simrad multibeam vendor format
0015_20070508_094219_raw.all.mb56.gz 5.94MB Simrad multibeam vendor format
0016_20070508_104219_raw.all.mb56.gz 5.06MB Simrad multibeam vendor format
0017_20070508_114219_raw.all.mb56.gz 4.52MB Simrad multibeam vendor format
0018_20070508_124220_raw.all.mb56.gz 5.34MB Simrad multibeam vendor format
0019_20070508_134220_raw.all.mb56.gz 7.45MB Simrad multibeam vendor format
0020_20070508_144221_raw.all.mb56.gz 6.90MB Simrad multibeam vendor format
0021_20070508_154221_raw.all.mb56.gz 6.03MB Simrad multibeam vendor format
0022_20070508_164221_raw.all.mb56.gz 6.84MB Simrad multibeam vendor format
0023_20070508_174222_raw.all.mb56.gz 7.87MB Simrad multibeam vendor format
0024_20070508_184222_raw.all.mb56.gz 6.29MB Simrad multibeam vendor format
0025_20070508_194223_raw.all.mb56.gz 4.27MB Simrad multibeam vendor format
0026_20070508_204223_raw.all.mb56.gz 3.56MB Simrad multibeam vendor format
0027_20070508_213914_raw.all.mb56.gz 3.60MB Simrad multibeam vendor format
0028_20070508_223914_raw.all.mb56.gz 3.63MB Simrad multibeam vendor format
0029_20070508_233915_raw.all.mb56.gz 3.66MB Simrad multibeam vendor format
0030_20070509_003915_raw.all.mb56.gz 3.79MB Simrad multibeam vendor format
0031_20070509_013916_raw.all.mb56.gz 3.70MB Simrad multibeam vendor format
0032_20070509_023916_raw.all.mb56.gz 3.75MB Simrad multibeam vendor format
0033_20070509_033916_raw.all.mb56.gz 3.80MB Simrad multibeam vendor format
0034_20070509_043917_raw.all.mb56.gz 3.83MB Simrad multibeam vendor format
0035_20070509_053917_raw.all.mb56.gz 3.88MB Simrad multibeam vendor format
0036_20070509_063918_raw.all.mb56.gz 3.89MB Simrad multibeam vendor format
0037_20070509_073918_raw.all.mb56.gz 3.93MB Simrad multibeam vendor format
0038_20070509_083918_raw.all.mb56.gz 3.94MB Simrad multibeam vendor format
0039_20070509_093919_raw.all.mb56.gz 3.97MB Simrad multibeam vendor format
0040_20070509_103919_raw.all.mb56.gz 3.95MB Simrad multibeam vendor format
0041_20070509_113920_raw.all.mb56.gz 3.95MB Simrad multibeam vendor format
0042_20070509_123920_raw.all.mb56.gz 3.91MB Simrad multibeam vendor format
0043_20070509_133920_raw.all.mb56.gz 3.82MB Simrad multibeam vendor format
0044_20070509_143921_raw.all.mb56.gz 3.81MB Simrad multibeam vendor format
0045_20070509_153921_raw.all.mb56.gz 3.83MB Simrad multibeam vendor format
0046_20070509_163922_raw.all.mb56.gz 3.84MB Simrad multibeam vendor format
0047_20070509_173922_raw.all.mb56.gz 3.86MB Simrad multibeam vendor format
0048_20070509_183923_raw.all.mb56.gz 3.87MB Simrad multibeam vendor format
0049_20070509_193923_raw.all.mb56.gz 3.85MB Simrad multibeam vendor format
0050_20070509_203923_raw.all.mb56.gz 3.80MB Simrad multibeam vendor format
0051_20070509_213924_raw.all.mb56.gz 1.29MB Simrad multibeam vendor format
0052_20070509_215932_raw.all.mb56.gz 3.79MB Simrad multibeam vendor format
0053_20070509_225932_raw.all.mb56.gz 1.16MB Simrad multibeam vendor format
0054_20070509_231758_raw.all.mb56.gz 0.70MB Simrad multibeam vendor format
0055_20070511_053455_raw.all.mb56.gz 140.9KB Simrad multibeam vendor format
0056_20070511_053709_raw.all.mb56.gz 3.97MB Simrad multibeam vendor format
0057_20070511_063709_raw.all.mb56.gz 4.05MB Simrad multibeam vendor format
0058_20070511_073709_raw.all.mb56.gz 3.97MB Simrad multibeam vendor format
0059_20070511_083710_raw.all.mb56.gz 3.87MB Simrad multibeam vendor format
0060_20070511_093710_raw.all.mb56.gz 3.90MB Simrad multibeam vendor format
0061_20070511_103711_raw.all.mb56.gz 3.83MB Simrad multibeam vendor format
0062_20070511_113711_raw.all.mb56.gz 3.76MB Simrad multibeam vendor format
0063_20070511_123711_raw.all.mb56.gz 3.90MB Simrad multibeam vendor format
0064_20070511_133712_raw.all.mb56.gz 3.96MB Simrad multibeam vendor format
0065_20070511_143712_raw.all.mb56.gz 4.02MB Simrad multibeam vendor format
0066_20070511_153713_raw.all.mb56.gz 4.00MB Simrad multibeam vendor format
0067_20070511_163713_raw.all.mb56.gz 1.69MB Simrad multibeam vendor format
0068_20070511_170221_raw.all.mb56.gz 3.94MB Simrad multibeam vendor format
0069_20070511_180221_raw.all.mb56.gz 3.86MB Simrad multibeam vendor format
0070_20070511_190222_raw.all.mb56.gz 3.89MB Simrad multibeam vendor format
0071_20070511_200222_raw.all.mb56.gz 3.89MB Simrad multibeam vendor format
0072_20070511_210222_raw.all.mb56.gz 3.87MB Simrad multibeam vendor format
0073_20070511_220223_raw.all.mb56.gz 3.89MB Simrad multibeam vendor format
0074_20070511_230223_raw.all.mb56.gz 3.94MB Simrad multibeam vendor format
0075_20070512_000223_raw.all.mb56.gz 507.2KB Simrad multibeam vendor format
0076_20070512_000943_raw.all.mb56.gz 3.74MB Simrad multibeam vendor format
0077_20070512_010659_raw.all.mb56.gz 3.90MB Simrad multibeam vendor format
0078_20070512_020659_raw.all.mb56.gz 4.04MB Simrad multibeam vendor format
0079_20070512_030700_raw.all.mb56.gz 0.63MB Simrad multibeam vendor format
0080_20070512_031852_raw.all.mb56.gz 4.43MB Simrad multibeam vendor format
0081_20070512_041853_raw.all.mb56.gz 4.40MB Simrad multibeam vendor format
0082_20070512_051853_raw.all.mb56.gz 387.3KB Simrad multibeam vendor format
0083_20070512_053508_raw.all.mb56.gz 0.99MB Simrad multibeam vendor format
0084_20070512_054858_raw.all.mb56.gz 1.78MB Simrad multibeam vendor format
0085_20070512_061349_raw.all.mb56.gz 2.22MB Simrad multibeam vendor format
0086_20070512_095845_raw.all.mb56.gz 3.26MB Simrad multibeam vendor format
0087_20070512_104325_raw.all.mb56.gz 63.3KB Simrad multibeam vendor format
0088_20070512_104950_raw.all.mb56.gz 3.92MB Simrad multibeam vendor format
0089_20070512_114951_raw.all.mb56.gz 3.99MB Simrad multibeam vendor format
0090_20070512_124951_raw.all.mb56.gz 4.05MB Simrad multibeam vendor format
0091_20070512_134952_raw.all.mb56.gz 3.99MB Simrad multibeam vendor format
0092_20070512_144952_raw.all.mb56.gz 2.03MB Simrad multibeam vendor format
0093_20070513_084637_raw.all.mb56.gz 3.79MB Simrad multibeam vendor format
0094_20070513_094637_raw.all.mb56.gz 3.92MB Simrad multibeam vendor format
0095_20070513_104638_raw.all.mb56.gz 3.90MB Simrad multibeam vendor format
0096_20070513_114638_raw.all.mb56.gz 3.90MB Simrad multibeam vendor format
0097_20070513_124639_raw.all.mb56.gz 3.97MB Simrad multibeam vendor format
0098_20070513_134639_raw.all.mb56.gz 4.07MB Simrad multibeam vendor format
0099_20070513_144639_raw.all.mb56.gz 4.73MB Simrad multibeam vendor format
0100_20070513_154640_raw.all.mb56.gz 5.66MB Simrad multibeam vendor format
0101_20070513_164640_raw.all.mb56.gz 5.59MB Simrad multibeam vendor format
0102_20070513_174641_raw.all.mb56.gz 5.48MB Simrad multibeam vendor format
0103_20070513_184641_raw.all.mb56.gz 5.67MB Simrad multibeam vendor format
0104_20070513_194641_raw.all.mb56.gz 5.83MB Simrad multibeam vendor format
0105_20070513_204642_raw.all.mb56.gz 5.83MB Simrad multibeam vendor format
0106_20070513_214642_raw.all.mb56.gz 5.80MB Simrad multibeam vendor format
0107_20070513_224642_raw.all.mb56.gz 5.77MB Simrad multibeam vendor format
0108_20070513_234643_raw.all.mb56.gz 1.91MB Simrad multibeam vendor format
0109_20070514_021905_raw.all.mb56.gz 79.0KB Simrad multibeam vendor format
0110_20070514_053831_raw.all.mb56.gz 5.26MB Simrad multibeam vendor format
0111_20070514_063831_raw.all.mb56.gz 4.32MB Simrad multibeam vendor format
0112_20070514_073831_raw.all.mb56.gz 3.99MB Simrad multibeam vendor format
0113_20070514_083832_raw.all.mb56.gz 3.90MB Simrad multibeam vendor format
0114_20070514_093832_raw.all.mb56.gz 3.83MB Simrad multibeam vendor format
0115_20070514_103833_raw.all.mb56.gz 3.77MB Simrad multibeam vendor format
0116_20070514_113833_raw.all.mb56.gz 1.15MB Simrad multibeam vendor format
0117_20070514_115709_raw.all.mb56.gz 8.1KB Simrad multibeam vendor format
0118_20070514_115722_raw.all.mb56.gz 3.67MB Simrad multibeam vendor format
0119_20070514_125722_raw.all.mb56.gz 1.84MB Simrad multibeam vendor format
0120_20070515_003005_raw.all.mb56.gz 4.06MB Simrad multibeam vendor format
0121_20070515_013006_raw.all.mb56.gz 3.97MB Simrad multibeam vendor format
0122_20070515_023006_raw.all.mb56.gz 4.04MB Simrad multibeam vendor format
0123_20070515_033006_raw.all.mb56.gz 4.00MB Simrad multibeam vendor format
0124_20070515_043007_raw.all.mb56.gz 4.04MB Simrad multibeam vendor format
0125_20070515_053007_raw.all.mb56.gz 4.07MB Simrad multibeam vendor format
0126_20070515_063008_raw.all.mb56.gz 3.91MB Simrad multibeam vendor format
0127_20070515_073008_raw.all.mb56.gz 1.78MB Simrad multibeam vendor format
0128_20070515_085713_raw.all.mb56.gz 4.02MB Simrad multibeam vendor format
0129_20070515_095713_raw.all.mb56.gz 3.97MB Simrad multibeam vendor format
0130_20070515_105713_raw.all.mb56.gz 3.99MB Simrad multibeam vendor format
0131_20070515_115714_raw.all.mb56.gz 3.98MB Simrad multibeam vendor format
0132_20070515_125714_raw.all.mb56.gz 3.98MB Simrad multibeam vendor format
0133_20070515_135715_raw.all.mb56.gz 3.96MB Simrad multibeam vendor format
0134_20070515_145715_raw.all.mb56.gz 3.91MB Simrad multibeam vendor format
0135_20070515_155715_raw.all.mb56.gz 3.92MB Simrad multibeam vendor format
0136_20070515_165716_raw.all.mb56.gz 3.92MB Simrad multibeam vendor format
0137_20070515_175716_raw.all.mb56.gz 2.95MB Simrad multibeam vendor format
0138_20070515_193720_raw.all.mb56.gz 3.84MB Simrad multibeam vendor format
0139_20070515_203720_raw.all.mb56.gz 3.85MB Simrad multibeam vendor format
0140_20070515_213721_raw.all.mb56.gz 1.35MB Simrad multibeam vendor format
0141_20070515_215819_raw.all.mb56.gz 3.88MB Simrad multibeam vendor format
0142_20070515_225819_raw.all.mb56.gz 3.89MB Simrad multibeam vendor format
0143_20070515_235820_raw.all.mb56.gz 3.91MB Simrad multibeam vendor format
0144_20070516_005820_raw.all.mb56.gz 1.36MB Simrad multibeam vendor format
0146_20070516_011932_raw.all.mb56.gz 3.38MB Simrad multibeam vendor format
0147_20070516_050924_raw.all.mb56.gz 3.57MB Simrad multibeam vendor format
0148_20070516_140122_raw.all.mb56.gz 3.84MB Simrad multibeam vendor format
0149_20070516_150122_raw.all.mb56.gz 3.99MB Simrad multibeam vendor format
0150_20070516_160122_raw.all.mb56.gz 3.92MB Simrad multibeam vendor format
0151_20070516_170123_raw.all.mb56.gz 3.99MB Simrad multibeam vendor format
0152_20070516_180123_raw.all.mb56.gz 3.84MB Simrad multibeam vendor format
0153_20070516_190124_raw.all.mb56.gz 3.99MB Simrad multibeam vendor format
0154_20070516_200124_raw.all.mb56.gz 2.25MB Simrad multibeam vendor format
0155_20070516_205805_raw.all.mb56.gz 0.84MB Simrad multibeam vendor format
0156_20070517_021535_raw.all.mb56.gz 1.75MB Simrad multibeam vendor format
0157_20070517_102817_raw.all.mb56.gz 0.94MB Simrad multibeam vendor format
0158_20070517_104235_raw.all.mb56.gz 4.00MB Simrad multibeam vendor format
0159_20070517_114235_raw.all.mb56.gz 4.01MB Simrad multibeam vendor format
0160_20070517_124236_raw.all.mb56.gz 4.02MB Simrad multibeam vendor format
0161_20070517_134236_raw.all.mb56.gz 3.98MB Simrad multibeam vendor format
0162_20070517_144237_raw.all.mb56.gz 1.69MB Simrad multibeam vendor format
0163_20070517_150823_raw.all.mb56.gz 3.97MB Simrad multibeam vendor format
0164_20070517_160824_raw.all.mb56.gz 0.60MB Simrad multibeam vendor format
0165_20070518_004631_raw.all.mb56.gz 4.02MB Simrad multibeam vendor format
0166_20070518_014631_raw.all.mb56.gz 4.01MB Simrad multibeam vendor format
0167_20070518_024632_raw.all.mb56.gz 3.46MB Simrad multibeam vendor format
0168_20070518_034123_raw.all.mb56.gz 2.11MB Simrad multibeam vendor format
0169_20070518_041402_raw.all.mb56.gz 2.75MB Simrad multibeam vendor format
0170_20070518_104933_raw.all.mb56.gz 3.78MB Simrad multibeam vendor format
0171_20070518_114934_raw.all.mb56.gz 3.77MB Simrad multibeam vendor format
0172_20070518_124934_raw.all.mb56.gz 3.75MB Simrad multibeam vendor format
0173_20070518_134935_raw.all.mb56.gz 3.78MB Simrad multibeam vendor format
0174_20070518_144935_raw.all.mb56.gz 3.77MB Simrad multibeam vendor format
0175_20070518_154935_raw.all.mb56.gz 3.80MB Simrad multibeam vendor format
0176_20070518_164936_raw.all.mb56.gz 3.78MB Simrad multibeam vendor format
0177_20070518_174936_raw.all.mb56.gz 1.98MB Simrad multibeam vendor format
0178_20070518_230100_raw.all.mb56.gz 2.61MB Simrad multibeam vendor format
0179_20070518_234137_raw.all.mb56.gz 3.94MB Simrad multibeam vendor format
0180_20070519_004137_raw.all.mb56.gz 3.85MB Simrad multibeam vendor format
0181_20070519_014137_raw.all.mb56.gz 3.90MB Simrad multibeam vendor format
0182_20070519_024138_raw.all.mb56.gz 3.94MB Simrad multibeam vendor format
0183_20070519_034138_raw.all.mb56.gz 3.87MB Simrad multibeam vendor format
0184_20070519_044139_raw.all.mb56.gz 3.81MB Simrad multibeam vendor format
0185_20070519_054139_raw.all.mb56.gz 3.81MB Simrad multibeam vendor format
0186_20070519_064139_raw.all.mb56.gz 3.82MB Simrad multibeam vendor format
0187_20070519_074140_raw.all.mb56.gz 3.77MB Simrad multibeam vendor format
0188_20070519_084140_raw.all.mb56.gz 3.80MB Simrad multibeam vendor format
0189_20070519_094140_raw.all.mb56.gz 3.76MB Simrad multibeam vendor format
0190_20070519_104141_raw.all.mb56.gz 3.78MB Simrad multibeam vendor format
0191_20070519_114141_raw.all.mb56.gz 3.79MB Simrad multibeam vendor format
0192_20070519_124142_raw.all.mb56.gz 3.77MB Simrad multibeam vendor format
0193_20070519_134142_raw.all.mb56.gz 3.75MB Simrad multibeam vendor format
0194_20070519_144142_raw.all.mb56.gz 3.78MB Simrad multibeam vendor format
0195_20070519_154143_raw.all.mb56.gz 3.78MB Simrad multibeam vendor format
0196_20070519_164143_raw.all.mb56.gz 1.79MB Simrad multibeam vendor format
0197_20070519_194747_raw.all.mb56.gz 3.97MB Simrad multibeam vendor format
0198_20070519_204748_raw.all.mb56.gz 3.94MB Simrad multibeam vendor format
0199_20070519_214748_raw.all.mb56.gz 3.85MB Simrad multibeam vendor format
0200_20070519_224748_raw.all.mb56.gz 3.77MB Simrad multibeam vendor format
0201_20070519_234749_raw.all.mb56.gz 0.52MB Simrad multibeam vendor format
0202_20070520_074357_raw.all.mb56.gz 1.81MB Simrad multibeam vendor format
0204_20070520_081202_raw.all.mb56.gz 3.89MB Simrad multibeam vendor format
0205_20070520_091203_raw.all.mb56.gz 3.92MB Simrad multibeam vendor format
0206_20070520_101203_raw.all.mb56.gz 4.20MB Simrad multibeam vendor format
0207_20070520_111203_raw.all.mb56.gz 5.18MB Simrad multibeam vendor format
0208_20070520_121204_raw.all.mb56.gz 5.42MB Simrad multibeam vendor format
0209_20070520_131204_raw.all.mb56.gz 9.55MB Simrad multibeam vendor format
0210_20070520_141205_raw.all.mb56.gz 30.48MB Simrad multibeam vendor format
0211_20070520_151205_raw.all.mb56.gz 9.91MB Simrad multibeam vendor format
0212_20070520_161205_raw.all.mb56.gz 5.63MB Simrad multibeam vendor format
0213_20070520_171206_raw.all.mb56.gz 5.68MB Simrad multibeam vendor format
0214_20070520_181206_raw.all.mb56.gz 6.67MB Simrad multibeam vendor format
0215_20070520_191206_raw.all.mb56.gz 10.63MB Simrad multibeam vendor format
0216_20070520_201207_raw.all.mb56.gz 14.13MB Simrad multibeam vendor format
0217_20070520_211207_raw.all.mb56.gz 16.66MB Simrad multibeam vendor format
0218_20070520_221208_raw.all.mb56.gz 19.20MB Simrad multibeam vendor format
0219_20070520_231208_raw.all.mb56.gz 1.06MB Simrad multibeam vendor format
0220_20070521_132752_raw.all.mb56.gz 45.2KB Simrad multibeam vendor format
0221_20070521_134412_raw.all.mb56.gz 9.3KB Simrad multibeam vendor format
0222_20070521_135930_raw.all.mb56.gz 226.0KB Simrad multibeam vendor format
0223_20070521_140319_raw.all.mb56.gz 13.96MB Simrad multibeam vendor format
0224_20070521_150320_raw.all.mb56.gz 96.77MB Simrad multibeam vendor format
0226_20070522_005946_raw.all.mb56.gz 6.40MB Simrad multibeam vendor format
0227_20070522_015946_raw.all.mb56.gz 2.88MB Simrad multibeam vendor format
0228_20070522_032153_raw.all.mb56.gz 6.08MB Simrad multibeam vendor format
0229_20070522_042153_raw.all.mb56.gz 5.63MB Simrad multibeam vendor format
0230_20070522_052154_raw.all.mb56.gz 5.06MB Simrad multibeam vendor format
0231_20070522_062154_raw.all.mb56.gz 3.90MB Simrad multibeam vendor format
0232_20070522_072154_raw.all.mb56.gz 2.81MB Simrad multibeam vendor format
0233_20070522_080840_raw.all.mb56.gz 2.52MB Simrad multibeam vendor format
0234_20070523_023211_raw.all.mb56.gz 86.3KB Simrad multibeam vendor format
0235_20070523_023419_raw.all.mb56.gz 4.02MB Simrad multibeam vendor format
0236_20070523_033419_raw.all.mb56.gz 4.04MB Simrad multibeam vendor format
0237_20070523_043420_raw.all.mb56.gz 3.97MB Simrad multibeam vendor format
0238_20070523_053420_raw.all.mb56.gz 3.88MB Simrad multibeam vendor format
0239_20070523_063420_raw.all.mb56.gz 4.00MB Simrad multibeam vendor format
0240_20070523_073421_raw.all.mb56.gz 3.99MB Simrad multibeam vendor format
0241_20070523_083421_raw.all.mb56.gz 3.59MB Simrad multibeam vendor format
0242_20070523_185947_raw.all.mb56.gz 3.94MB Simrad multibeam vendor format
0243_20070523_195947_raw.all.mb56.gz 3.98MB Simrad multibeam vendor format
0244_20070523_205948_raw.all.mb56.gz 3.94MB Simrad multibeam vendor format
0245_20070523_215948_raw.all.mb56.gz 4.02MB Simrad multibeam vendor format
0246_20070523_225949_raw.all.mb56.gz 4.00MB Simrad multibeam vendor format
0247_20070523_235949_raw.all.mb56.gz 3.04MB Simrad multibeam vendor format
0248_20070524_102105_raw.all.mb56.gz 3.93MB Simrad multibeam vendor format
0249_20070524_112105_raw.all.mb56.gz 5.08MB Simrad multibeam vendor format
0250_20070524_123808_raw.all.mb56.gz 3.51MB Simrad multibeam vendor format
0251_20070524_133809_raw.all.mb56.gz 0.80MB Simrad multibeam vendor format
0252_20070524_170855_raw.all.mb56.gz 3.50MB Simrad multibeam vendor format
0253_20070524_180855_raw.all.mb56.gz 3.55MB Simrad multibeam vendor format
0254_20070524_190856_raw.all.mb56.gz 3.44MB Simrad multibeam vendor format
0255_20070524_200856_raw.all.mb56.gz 3.44MB Simrad multibeam vendor format
0256_20070524_210856_raw.all.mb56.gz 1.05MB Simrad multibeam vendor format
0257_20070525_000618_raw.all.mb56.gz 3.43MB Simrad multibeam vendor format
0258_20070525_010619_raw.all.mb56.gz 72.1KB Simrad multibeam vendor format
0259_20070525_010737_raw.all.mb56.gz 358.2KB Simrad multibeam vendor format
0260_20070525_011924_raw.all.mb56.gz 2.79MB Simrad multibeam vendor format
0261_20070525_021708_raw.all.mb56.gz 3.05MB Simrad multibeam vendor format
0262_20070525_060922_raw.all.mb56.gz 3.57MB Simrad multibeam vendor format
0263_20070525_070923_raw.all.mb56.gz 3.47MB Simrad multibeam vendor format
0264_20070525_225737_raw.all.mb56.gz 3.65MB Simrad multibeam vendor format
0265_20070525_235738_raw.all.mb56.gz 3.72MB Simrad multibeam vendor format
0266_20070526_005738_raw.all.mb56.gz 3.73MB Simrad multibeam vendor format
0267_20070526_015739_raw.all.mb56.gz 3.68MB Simrad multibeam vendor format
0268_20070526_025739_raw.all.mb56.gz 3.72MB Simrad multibeam vendor format
0269_20070526_035739_raw.all.mb56.gz 3.74MB Simrad multibeam vendor format
0270_20070526_045740_raw.all.mb56.gz 2.00MB Simrad multibeam vendor format
0271_20070526_052916_raw.all.mb56.gz 0.79MB Simrad multibeam vendor format
0272_20070526_062545_raw.all.mb56.gz 3.27MB Simrad multibeam vendor format
0273_20070526_174659_raw.all.mb56.gz 3.65MB Simrad multibeam vendor format
0274_20070526_184659_raw.all.mb56.gz 3.68MB Simrad multibeam vendor format
0275_20070526_194700_raw.all.mb56.gz 3.75MB Simrad multibeam vendor format
0276_20070526_204700_raw.all.mb56.gz 3.66MB Simrad multibeam vendor format
0277_20070526_214700_raw.all.mb56.gz 3.71MB Simrad multibeam vendor format
0278_20070526_224701_raw.all.mb56.gz 3.71MB Simrad multibeam vendor format
0279_20070526_234701_raw.all.mb56.gz 3.69MB Simrad multibeam vendor format
0280_20070527_004701_raw.all.mb56.gz 3.66MB Simrad multibeam vendor format
0281_20070527_014702_raw.all.mb56.gz 3.74MB Simrad multibeam vendor format
0282_20070527_024702_raw.all.mb56.gz 3.66MB Simrad multibeam vendor format
0283_20070527_034703_raw.all.mb56.gz 2.56MB Simrad multibeam vendor format
0284_20070527_043315_raw.all.mb56.gz 1.83MB Simrad multibeam vendor format
0285_20070527_153423_raw.all.mb56.gz 3.69MB Simrad multibeam vendor format
0286_20070527_163423_raw.all.mb56.gz 3.79MB Simrad multibeam vendor format
0287_20070527_173424_raw.all.mb56.gz 4.02MB Simrad multibeam vendor format
0288_20070527_183424_raw.all.mb56.gz 1.68MB Simrad multibeam vendor format
0289_20070528_043256_raw.all.mb56.gz 3.94MB Simrad multibeam vendor format
0290_20070528_053256_raw.all.mb56.gz 1.63MB Simrad multibeam vendor format
0291_20070528_055723_raw.all.mb56.gz 3.99MB Simrad multibeam vendor format
0292_20070528_065724_raw.all.mb56.gz 4.33MB Simrad multibeam vendor format
0293_20070528_075724_raw.all.mb56.gz 4.64MB Simrad multibeam vendor format
0294_20070528_085725_raw.all.mb56.gz 4.45MB Simrad multibeam vendor format
0295_20070528_095725_raw.all.mb56.gz 2.01MB Simrad multibeam vendor format
0296_20070528_194859_raw.all.mb56.gz 4.17MB Simrad multibeam vendor format
0297_20070528_204900_raw.all.mb56.gz 4.06MB Simrad multibeam vendor format
0298_20070528_214900_raw.all.mb56.gz 4.14MB Simrad multibeam vendor format
0299_20070528_224901_raw.all.mb56.gz 4.15MB Simrad multibeam vendor format
0300_20070528_234901_raw.all.mb56.gz 4.38MB Simrad multibeam vendor format
0301_20070529_004901_raw.all.mb56.gz 4.11MB Simrad multibeam vendor format
0302_20070529_014902_raw.all.mb56.gz 4.43MB Simrad multibeam vendor format
0303_20070529_024902_raw.all.mb56.gz 4.76MB Simrad multibeam vendor format
0304_20070529_034902_raw.all.mb56.gz 4.27MB Simrad multibeam vendor format
0305_20070530_031309_raw.all.mb56.gz 4.46MB Simrad multibeam vendor format
0306_20070530_041310_raw.all.mb56.gz 4.01MB Simrad multibeam vendor format
0307_20070530_051310_raw.all.mb56.gz 4.12MB Simrad multibeam vendor format
0308_20070530_061310_raw.all.mb56.gz 3.98MB Simrad multibeam vendor format
0309_20070530_071230_raw.all.mb56.gz 4.23MB Simrad multibeam vendor format
0310_20070530_081231_raw.all.mb56.gz 4.21MB Simrad multibeam vendor format
0311_20070530_091231_raw.all.mb56.gz 4.28MB Simrad multibeam vendor format
0312_20070530_101231_raw.all.mb56.gz 4.06MB Simrad multibeam vendor format
0313_20070530_111232_raw.all.mb56.gz 1.85MB Simrad multibeam vendor format
0314_20070531_054425_raw.all.mb56.gz 3.36MB Simrad multibeam vendor format
0315_20070531_064425_raw.all.mb56.gz 1.46MB Simrad multibeam vendor format
0316_20070531_130526_raw.all.mb56.gz 3.52MB Simrad multibeam vendor format
0317_20070531_140526_raw.all.mb56.gz 3.71MB Simrad multibeam vendor format
0318_20070531_150527_raw.all.mb56.gz 3.76MB Simrad multibeam vendor format
0319_20070531_160527_raw.all.mb56.gz 3.85MB Simrad multibeam vendor format
0320_20070531_170528_raw.all.mb56.gz 3.86MB Simrad multibeam vendor format
0321_20070531_180528_raw.all.mb56.gz 2.65MB Simrad multibeam vendor format
0322_20070601_072113_raw.all.mb56.gz 3.84MB Simrad multibeam vendor format
0323_20070601_082114_raw.all.mb56.gz 3.58MB Simrad multibeam vendor format
0324_20070601_092114_raw.all.mb56.gz 1.81MB Simrad multibeam vendor format
0325_20070601_095031_raw.all.mb56.gz 3.63MB Simrad multibeam vendor format
0326_20070601_105032_raw.all.mb56.gz 3.54MB Simrad multibeam vendor format
0327_20070601_115032_raw.all.mb56.gz 3.82MB Simrad multibeam vendor format
0328_20070601_125032_raw.all.mb56.gz 4.00MB Simrad multibeam vendor format
0329_20070601_135033_raw.all.mb56.gz 4.09MB Simrad multibeam vendor format
0330_20070601_145033_raw.all.mb56.gz 4.21MB Simrad multibeam vendor format
0331_20070601_155033_raw.all.mb56.gz 0.82MB Simrad multibeam vendor format
0332_20070602_060923_raw.all.mb56.gz 3.81MB Simrad multibeam vendor format
0333_20070602_070923_raw.all.mb56.gz 4.01MB Simrad multibeam vendor format
0334_20070602_080924_raw.all.mb56.gz 3.82MB Simrad multibeam vendor format
0335_20070602_090924_raw.all.mb56.gz 3.79MB Simrad multibeam vendor format
0336_20070602_100925_raw.all.mb56.gz 3.67MB Simrad multibeam vendor format
0337_20070602_110925_raw.all.mb56.gz 3.72MB Simrad multibeam vendor format
0338_20070602_120925_raw.all.mb56.gz 3.67MB Simrad multibeam vendor format
0339_20070602_130926_raw.all.mb56.gz 3.69MB Simrad multibeam vendor format
0340_20070602_140926_raw.all.mb56.gz 3.77MB Simrad multibeam vendor format
0341_20070602_150927_raw.all.mb56.gz 3.58MB Simrad multibeam vendor format
0342_20070602_160927_raw.all.mb56.gz 3.46MB Simrad multibeam vendor format
0343_20070602_170927_raw.all.mb56.gz 2.46MB Simrad multibeam vendor format
0344_20070602_224849_raw.all.mb56.gz 3.31MB Simrad multibeam vendor format
0345_20070602_234850_raw.all.mb56.gz 3.41MB Simrad multibeam vendor format
0346_20070603_004850_raw.all.mb56.gz 2.20MB Simrad multibeam vendor format
0347_20070603_012651_raw.all.mb56.gz 3.67MB Simrad multibeam vendor format
0348_20070603_022651_raw.all.mb56.gz 3.73MB Simrad multibeam vendor format
0349_20070603_131824_raw.all.mb56.gz 3.85MB Simrad multibeam vendor format
0350_20070603_141825_raw.all.mb56.gz 4.11MB Simrad multibeam vendor format
0351_20070603_151825_raw.all.mb56.gz 369.8KB Simrad multibeam vendor format
0352_20070603_170741_raw.all.mb56.gz 4.11MB Simrad multibeam vendor format
0353_20070603_180741_raw.all.mb56.gz 4.46MB Simrad multibeam vendor format
0354_20070603_190742_raw.all.mb56.gz 4.78MB Simrad multibeam vendor format
0355_20070603_200742_raw.all.mb56.gz 4.22MB Simrad multibeam vendor format
0356_20070603_210742_raw.all.mb56.gz 0.68MB Simrad multibeam vendor format
0357_20070603_212021_raw.all.mb56.gz 4.23MB Simrad multibeam vendor format
0358_20070603_222021_raw.all.mb56.gz 4.24MB Simrad multibeam vendor format
0359_20070603_232021_raw.all.mb56.gz 1.87MB Simrad multibeam vendor format
0361_20070604_071605_raw.all.mb56.gz 4.03MB Simrad multibeam vendor format
0362_20070604_081605_raw.all.mb56.gz 3.46MB Simrad multibeam vendor format
0363_20070604_091605_raw.all.mb56.gz 0.61MB Simrad multibeam vendor format
0364_20070604_145005_raw.all.mb56.gz 3.26MB Simrad multibeam vendor format
0365_20070604_155005_raw.all.mb56.gz 3.25MB Simrad multibeam vendor format
0366_20070604_165005_raw.all.mb56.gz 3.26MB Simrad multibeam vendor format
0367_20070604_175006_raw.all.mb56.gz 3.37MB Simrad multibeam vendor format
0368_20070604_185006_raw.all.mb56.gz 3.56MB Simrad multibeam vendor format
0369_20070604_195007_raw.all.mb56.gz 3.96MB Simrad multibeam vendor format
0370_20070604_205007_raw.all.mb56.gz 3.91MB Simrad multibeam vendor format
0371_20070604_215007_raw.all.mb56.gz 3.78MB Simrad multibeam vendor format
0372_20070604_225008_raw.all.mb56.gz 0.92MB Simrad multibeam vendor format
0373_20070605_070504_raw.all.mb56.gz 3.65MB Simrad multibeam vendor format
0374_20070605_080505_raw.all.mb56.gz 1.70MB Simrad multibeam vendor format
0375_20070605_083248_raw.all.mb56.gz 3.46MB Simrad multibeam vendor format
0376_20070605_093249_raw.all.mb56.gz 3.36MB Simrad multibeam vendor format
0377_20070605_103249_raw.all.mb56.gz 3.36MB Simrad multibeam vendor format
0378_20070605_113249_raw.all.mb56.gz 3.33MB Simrad multibeam vendor format
0379_20070605_152959_raw.all.mb56.gz 0.63MB Simrad multibeam vendor format
0381_20070605_154944_raw.all.mb56.gz 3.25MB Simrad multibeam vendor format
0382_20070605_164945_raw.all.mb56.gz 3.40MB Simrad multibeam vendor format
0383_20070605_174945_raw.all.mb56.gz 0.84MB Simrad multibeam vendor format
0384_20070606_000102_raw.all.mb56.gz 3.66MB Simrad multibeam vendor format
0385_20070606_010102_raw.all.mb56.gz 3.87MB Simrad multibeam vendor format
0386_20070606_020103_raw.all.mb56.gz 3.88MB Simrad multibeam vendor format
0387_20070606_030103_raw.all.mb56.gz 3.77MB Simrad multibeam vendor format
0388_20070606_040103_raw.all.mb56.gz 3.74MB Simrad multibeam vendor format
0389_20070606_050104_raw.all.mb56.gz 3.70MB Simrad multibeam vendor format
0390_20070606_060104_raw.all.mb56.gz 3.75MB Simrad multibeam vendor format
0391_20070606_070104_raw.all.mb56.gz 3.85MB Simrad multibeam vendor format
0392_20070606_080105_raw.all.mb56.gz 3.81MB Simrad multibeam vendor format
0393_20070606_090105_raw.all.mb56.gz 3.82MB Simrad multibeam vendor format
0394_20070606_100106_raw.all.mb56.gz 3.73MB Simrad multibeam vendor format
0395_20070606_110106_raw.all.mb56.gz 3.76MB Simrad multibeam vendor format
0396_20070606_120106_raw.all.mb56.gz 3.65MB Simrad multibeam vendor format
0397_20070606_130107_raw.all.mb56.gz 3.62MB Simrad multibeam vendor format
0398_20070606_140107_raw.all.mb56.gz 3.71MB Simrad multibeam vendor format
0399_20070606_150107_raw.all.mb56.gz 3.83MB Simrad multibeam vendor format
0400_20070606_160108_raw.all.mb56.gz 3.72MB Simrad multibeam vendor format
0401_20070606_170108_raw.all.mb56.gz 3.83MB Simrad multibeam vendor format
0402_20070606_180109_raw.all.mb56.gz 3.80MB Simrad multibeam vendor format
0403_20070606_190109_raw.all.mb56.gz 3.79MB Simrad multibeam vendor format
0404_20070606_200109_raw.all.mb56.gz 3.77MB Simrad multibeam vendor format
0405_20070606_210110_raw.all.mb56.gz 3.77MB Simrad multibeam vendor format
0406_20070606_220110_raw.all.mb56.gz 3.71MB Simrad multibeam vendor format
0407_20070606_230110_raw.all.mb56.gz 3.61MB Simrad multibeam vendor format
0408_20070607_000111_raw.all.mb56.gz 3.55MB Simrad multibeam vendor format
0409_20070607_010111_raw.all.mb56.gz 2.64MB Simrad multibeam vendor format
0410_20070607_081035_raw.all.mb56.gz 2.15MB Simrad multibeam vendor format
0411_20070607_085011_raw.all.mb56.gz 3.37MB Simrad multibeam vendor format
0412_20070607_095011_raw.all.mb56.gz 3.44MB Simrad multibeam vendor format
0413_20070607_105012_raw.all.mb56.gz 3.47MB Simrad multibeam vendor format
0414_20070607_115012_raw.all.mb56.gz 3.45MB Simrad multibeam vendor format
0415_20070607_200326_raw.all.mb56.gz 3.44MB Simrad multibeam vendor format
0416_20070607_210327_raw.all.mb56.gz 3.56MB Simrad multibeam vendor format
0417_20070607_220327_raw.all.mb56.gz 3.75MB Simrad multibeam vendor format
0418_20070607_230327_raw.all.mb56.gz 3.81MB Simrad multibeam vendor format
0419_20070608_000328_raw.all.mb56.gz 3.96MB Simrad multibeam vendor format
0420_20070608_010328_raw.all.mb56.gz 4.02MB Simrad multibeam vendor format
0421_20070608_020328_raw.all.mb56.gz 3.91MB Simrad multibeam vendor format
0422_20070608_030329_raw.all.mb56.gz 3.94MB Simrad multibeam vendor format
0423_20070608_040329_raw.all.mb56.gz 0.84MB Simrad multibeam vendor format
0424_20070608_083706_raw.all.mb56.gz 3.93MB Simrad multibeam vendor format
0425_20070608_093706_raw.all.mb56.gz 4.15MB Simrad multibeam vendor format
0426_20070608_103706_raw.all.mb56.gz 1.28MB Simrad multibeam vendor format
0427_20070608_202651_raw.all.mb56.gz 3.79MB Simrad multibeam vendor format
0428_20070608_212652_raw.all.mb56.gz 3.67MB Simrad multibeam vendor format
0429_20070608_222652_raw.all.mb56.gz 2.18MB Simrad multibeam vendor format
0430_20070608_230437_raw.all.mb56.gz 3.19MB Simrad multibeam vendor format
0431_20070609_104849_raw.all.mb56.gz 81.7KB Simrad multibeam vendor format
0432_20070609_105036_raw.all.mb56.gz 3.61MB Simrad multibeam vendor format
0433_20070609_115037_raw.all.mb56.gz 4.16MB Simrad multibeam vendor format
0434_20070609_125037_raw.all.mb56.gz 5.36MB Simrad multibeam vendor format
0435_20070609_135037_raw.all.mb56.gz 120.7KB Simrad multibeam vendor format
0436_20070609_172316_raw.all.mb56.gz 5.40MB Simrad multibeam vendor format
0437_20070609_182316_raw.all.mb56.gz 4.84MB Simrad multibeam vendor format
0438_20070609_192316_raw.all.mb56.gz 4.46MB Simrad multibeam vendor format
0439_20070609_202317_raw.all.mb56.gz 4.33MB Simrad multibeam vendor format
0440_20070609_212317_raw.all.mb56.gz 2.31MB Simrad multibeam vendor format
0442_20070610_060539_raw.all.mb56.gz 4.18MB Simrad multibeam vendor format
0443_20070610_070539_raw.all.mb56.gz 4.13MB Simrad multibeam vendor format
0444_20070610_080540_raw.all.mb56.gz 4.12MB Simrad multibeam vendor format
0445_20070610_090540_raw.all.mb56.gz 4.09MB Simrad multibeam vendor format
0446_20070610_100540_raw.all.mb56.gz 4.07MB Simrad multibeam vendor format
0447_20070610_110541_raw.all.mb56.gz 4.08MB Simrad multibeam vendor format
0448_20070610_120541_raw.all.mb56.gz 4.07MB Simrad multibeam vendor format
0449_20070610_130541_raw.all.mb56.gz 4.24MB Simrad multibeam vendor format
0450_20070610_140542_raw.all.mb56.gz 3.96MB Simrad multibeam vendor format
0451_20070610_150542_raw.all.mb56.gz 3.82MB Simrad multibeam vendor format
0452_20070610_160542_raw.all.mb56.gz 3.83MB Simrad multibeam vendor format
0453_20070610_170543_raw.all.mb56.gz 3.86MB Simrad multibeam vendor format
0454_20070610_180543_raw.all.mb56.gz 3.77MB Simrad multibeam vendor format
0455_20070610_190544_raw.all.mb56.gz 3.81MB Simrad multibeam vendor format
0456_20070610_200544_raw.all.mb56.gz 3.76MB Simrad multibeam vendor format
0457_20070610_210544_raw.all.mb56.gz 3.84MB Simrad multibeam vendor format
0458_20070610_220545_raw.all.mb56.gz 3.83MB Simrad multibeam vendor format
0459_20070610_230545_raw.all.mb56.gz 3.92MB Simrad multibeam vendor format
0460_20070611_000545_raw.all.mb56.gz 3.97MB Simrad multibeam vendor format
0461_20070611_010546_raw.all.mb56.gz 3.98MB Simrad multibeam vendor format
0462_20070611_020546_raw.all.mb56.gz 4.03MB Simrad multibeam vendor format
0463_20070611_030547_raw.all.mb56.gz 4.03MB Simrad multibeam vendor format
0464_20070611_040547_raw.all.mb56.gz 4.02MB Simrad multibeam vendor format
0465_20070611_050548_raw.all.mb56.gz 1.60MB Simrad multibeam vendor format
0466_20070611_052950_raw.all.mb56.gz 4.07MB Simrad multibeam vendor format
0467_20070611_062951_raw.all.mb56.gz 3.95MB Simrad multibeam vendor format
0468_20070611_072951_raw.all.mb56.gz 3.90MB Simrad multibeam vendor format
0469_20070611_082951_raw.all.mb56.gz 383.6KB Simrad multibeam vendor format
0470_20070611_135350_raw.all.mb56.gz 3.92MB Simrad multibeam vendor format
0471_20070611_145351_raw.all.mb56.gz 3.95MB Simrad multibeam vendor format
0472_20070611_155351_raw.all.mb56.gz 3.94MB Simrad multibeam vendor format
0473_20070611_165351_raw.all.mb56.gz 3.91MB Simrad multibeam vendor format
0474_20070611_175352_raw.all.mb56.gz 3.87MB Simrad multibeam vendor format
0475_20070611_185352_raw.all.mb56.gz 3.86MB Simrad multibeam vendor format
0476_20070611_195352_raw.all.mb56.gz 3.89MB Simrad multibeam vendor format
0477_20070611_205353_raw.all.mb56.gz 3.58MB Simrad multibeam vendor format
0478_20070612_035718_raw.all.mb56.gz 4.31MB Simrad multibeam vendor format
0479_20070612_045719_raw.all.mb56.gz 4.46MB Simrad multibeam vendor format
0480_20070612_055719_raw.all.mb56.gz 4.42MB Simrad multibeam vendor format
0481_20070612_065719_raw.all.mb56.gz 4.44MB Simrad multibeam vendor format
0482_20070612_075720_raw.all.mb56.gz 4.43MB Simrad multibeam vendor format
0483_20070612_085720_raw.all.mb56.gz 4.41MB Simrad multibeam vendor format
0484_20070612_095721_raw.all.mb56.gz 2.41MB Simrad multibeam vendor format
0488_20070612_132615_raw.all.mb56.gz 4.88MB Simrad multibeam vendor format
0489_20070612_142615_raw.all.mb56.gz 143.34MB Simrad multibeam vendor format

Full Resolution Bathymetry (processed): 1

Files File Size Description
knox05rr.b93.mb164.gz 183.43MB NGDC binary hydrographic sounding format

Metadata Files: 1

Files File Size Description
KNOX05RR_Multibeam.xml NGDC created ISO metadata

Ancillary Files: 1

Files File Size Description
xbt.tar.gz 0.76MB Expendable Bathythermograph (XBT) data